{"data":{"norad_id":56377,"epoch":"2026-05-24T23:52:29.533728Z","epoch_age_seconds":86181,"freshness":"FRESH","line1":"1 56377U 23061D   26144.99478627  .00001858  00000+0  77018-4 0  9997","line2":"2 56377  43.0001 127.4732 0001695 215.2915 144.7825 15.27582392168415","mean_motion":15.27582392,"eccentricity":0.0001695,"inclination_deg":43.0001,"raan_deg":127.4732,"arg_perigee_deg":215.2915,"mean_anomaly_deg":144.7825,"bstar":7.7018e-5,"rev_number":16841,"period_min":94.266601103896,"perigee_km":481.87896371125,"apogee_km":484.20490336972,"semimajor_km":6861.1789335405,"source":"CELESTRAK","updated_at":"2026-05-25T13:38:18.010779Z"}}